Home > Weather > Greifswald > Past weeks

Flag for Germany Past Weather in Greifswald, Mecklenburg-Western Pomerania, Germany — Yesterday and Last 2 Weeks

Now
64 °F

Passing clouds.


Feels Like: 64 °F
Forecast: 62 / 73 °F
Wind: 1 mph from Southwest

Location: Trollenhagen

Current Time: Jul 27, 2016 at 11:07:23 PM

Latest Report: Jul 27, 2016 at 10:00 PM


Visibility: N/A

Pressure: 29.96 "Hg

Humidity: 96%

Dew Point: 63 °F

Location of GreifswaldLocation

Past Weather in Greifswald — Graph

°F

Greifswald Temperature Yesterday

Maximum temperature yesterday: 78 °F (at 1:00 PM)
Minimum temperature yesterday: 64 °F (at 6:00 AM)
Average temperature yesterday: 70 °F

High & Low Weather Summary for the Past Weeks

 TemperatureHumidityPressure
High85 °F (Jul 25, 3:00 PM)99% (Jul 20, 6:00 AM)30.22 "Hg (Jul 20, 6:00 AM)
Low51 °F (Jul 16, 6:00 AM)30% (Jul 22, 1:00 PM)29.85 "Hg (Jul 12, 10:00 PM)
Average66 °F73%30.05 "Hg
* Reported Jul 12 10:00 PM — Jul 27 10:00 PM, Greifswald, Weather by CustomWeather, © 2016

Note: Actual official high and low records may vary slightly from our data, if they occured in-between our weather recording intervals... More about our weather records

Advertising

Greifswald Weather History for the Previous 24 Hours

Scroll right to see more
 ConditionsComfort  
Time TempWeatherWind HumidityBarometerVisibility
10:00 PM
Wed, Jul 27
64 °FPassing clouds.1 mph96%29.96 "HgN/A
9:00 PM66 °FOvercast.1 mph87%29.94 "HgN/A
7:00 PM66 °FOvercast.1 mph88%29.94 "HgN/A
6:00 PM65 °FOvercast.3 mph90%29.93 "HgN/A
4:00 PM65 °FOvercast.5 mph81%29.98 "HgN/A
3:00 PM64 °FOvercast.5 mph90%30.01 "HgN/A
1:00 PM61 °FFog.3 mph92%30.06 "HgN/A
12:00 PM65 °FOvercast.7 mph78%30.07 "HgN/A
10:00 AM69 °FOvercast.3 mph64%30.06 "HgN/A
9:00 AM67 °FOvercast.5 mph66%30.07 "HgN/A
7:00 AM61 °FOvercast.1 mph89%30.09 "HgN/A
6:00 AM60 °FOvercast.1 mph90%30.10 "HgN/A
4:00 AM58 °FOvercast.2 mph84%30.11 "HgN/A
3:00 AM59 °FPassing clouds.1 mph81%30.12 "HgN/A
1:00 AM61 °FClear.1 mph70%30.14 "HgN/A
12:00 AM61 °FPassing clouds.2 mph68%30.13 "HgN/A
Weather by CustomWeather, © 2016

See weather overviewHow to use our weather pages